Watertown, WI

9:02 PM CDT on June 25, 2017 (GMT -0500)
Watertown Municipal

Weather History for KRYV - March, 2013

Change the Weather History Date:

Tuesday, March 5, 2013

  Actual Average Record
Temperature  
Mean Temperature 27 °F -  
Max Temperature 30 °F 38 °F 69 °F (1983)
Min Temperature 24 °F 21 °F -7 °F (2002)
Degree Days  
Heating Degree Days 38    
Moisture  
Dew Point 24 °F    
Average Humidity 85    
Maximum Humidity 96    
Minimum Humidity 72    
Precipitation  
Precipitation 0.11 in - - ()
Sea Level Pressure  
Sea Level Pressure 29.95 in    
Wind  
Wind Speed 9 mph (NE)    
Max Wind Speed 18 mph    
Max Gust Speed 26 mph    
Visibility 6 miles    
Events Snow    
Averages and records for this station are not official NWS values.
T = Trace of Precipitation, MM = Missing Value Source: NWS Daily Summary

Daily Weather History Graph

Daily Weather History Graph

Search for Another Location

Airport or City:

Trip Planner

Search our weather history database for the weather conditions in past years. The results will help you decide how hot, cold, wet, or windy it might be!

Date:

Astronomy

Mar. 05, 2013 Rise Set
Actual Time 6:23 AM CST 5:49 PM CST
Civil Twilight 5:55 AM CST 6:17 PM CST
Nautical Twilight 5:22 AM CST 6:50 PM CST
Astronomical Twilight 4:49 AM CST 7:23 PM CST
Moon 1:43 AM CST (3/5) 11:21 AM CST (3/5)
Length of Visible Light 12h 22m
Length of Day
11h 25m
Last Quarter, 40% of the Moon is Illuminated
Mar 5
Last Quarter
Mar 11
New
Mar 19
First Quarter
Mar 27
Full
Apr 2
Last Quarter

Hourly Weather History & Observations

Time (CST) Temp. Windchill Dew Point Humidity Pressure Visibility Wind Dir Wind Speed Gust Speed Precip Events Conditions
12:35 AM 29.1 °F 22.1 °F 24.3 °F 82% 30.01 in 10.0 mi ENE 6.9 mph - N/A   Overcast
12:55 AM 29.1 °F 23.0 °F 24.4 °F 83% 30.00 in 10.0 mi ENE 5.8 mph - N/A   Overcast
1:15 AM 29.1 °F 23.0 °F 24.3 °F 82% 30.00 in 10.0 mi ENE 5.8 mph - N/A   Overcast
1:35 AM 29.3 °F 22.3 °F 24.4 °F 82% 29.99 in 10.0 mi NE 6.9 mph - N/A   Overcast
1:55 AM 29.3 °F 22.3 °F 24.1 °F 81% 29.98 in 10.0 mi ENE 6.9 mph - N/A   Overcast
2:15 AM 29.7 °F 22.0 °F 23.9 °F 79% 29.97 in 10.0 mi ENE 8.1 mph - N/A   Overcast
3:15 AM 30.2 °F 24.3 °F 22.8 °F 74% 29.95 in 10.0 mi East 5.8 mph - N/A   Overcast
3:35 AM 30.2 °F 23.4 °F 22.8 °F 74% 29.95 in 10.0 mi East 6.9 mph - N/A   Overcast
3:55 AM 30.2 °F 22.6 °F 22.8 °F 74% 29.94 in 10.0 mi ENE 8.1 mph - N/A   Overcast
4:15 AM 30.4 °F 22.2 °F 22.6 °F 73% 29.93 in 10.0 mi ENE 9.2 mph - N/A   Overcast
4:55 AM 30.7 °F 24.1 °F 22.8 °F 72% 29.93 in 10.0 mi East 6.9 mph - N/A   Overcast
5:15 AM 30.7 °F 22.6 °F 23.0 °F 73% 29.92 in 10.0 mi East 9.2 mph - N/A   Overcast
5:35 AM 30.7 °F 22.0 °F 23.5 °F 75% 29.92 in 10.0 mi East 10.4 mph - N/A   Overcast
6:15 AM 30.6 °F 21.2 °F 23.4 °F 75% 29.91 in 10.0 mi East 11.5 mph - N/A   Overcast
6:35 AM 30.6 °F 21.2 °F 23.0 °F 74% 29.91 in 10.0 mi East 11.5 mph 16.1 mph N/A   Overcast
6:55 AM 30.6 °F 21.8 °F 23.2 °F 74% 29.91 in 10.0 mi East 10.4 mph - N/A   Overcast
7:15 AM 30.7 °F 22.6 °F 23.5 °F 75% 29.92 in 7.0 mi East 9.2 mph - N/A   Overcast
7:35 AM 30.6 °F 23.8 °F 23.9 °F 76% 29.93 in 3.0 mi East 6.9 mph - N/A Snow Light Snow
7:55 AM 29.3 °F 20.8 °F 25.5 °F 86% 29.93 in 1.2 mi East 9.2 mph - N/A Snow Light Snow
8:15 AM 28.8 °F 22.6 °F 26.6 °F 92% 29.93 in 0.8 mi ENE 5.8 mph - N/A Snow Light Snow
8:35 AM 28.4 °F 22.2 °F 27.1 °F 95% 29.94 in 1.0 mi ENE 5.8 mph - N/A Snow Light Snow
8:55 AM 28.4 °F 19.7 °F 27.3 °F 96% 29.93 in 0.5 mi ENE 9.2 mph - 0.01 in Snow Snow
9:15 AM 28.4 °F 19.1 °F 27.1 °F 95% 29.92 in 0.5 mi ENE 10.4 mph - 0.01 in Snow Snow
9:55 AM 27.5 °F 16.8 °F 26.2 °F 95% 29.91 in 0.5 mi ENE 12.7 mph 18.4 mph 0.03 in Snow Snow
10:15 AM 27.5 °F 17.4 °F 25.9 °F 94% 29.90 in 0.5 mi ENE 11.5 mph - N/A Snow Light Snow
10:55 AM 28.0 °F 18.6 °F 26.2 °F 93% 29.90 in 0.5 mi ENE 10.4 mph - 0.03 in Snow Light Snow
11:15 AM 28.0 °F 18.6 °F 25.9 °F 92% 29.89 in 0.5 mi NE 10.4 mph 17.3 mph 0.01 in Snow Snow
11:35 AM 28.2 °F 18.9 °F 25.9 °F 91% 29.89 in 0.8 mi NE 10.4 mph - 0.02 in Snow Light Snow
11:55 AM 28.4 °F 18.5 °F 25.9 °F 90% 29.88 in 1.0 mi NE 11.5 mph 21.9 mph 0.02 in Snow Light Snow
12:35 PM 28.9 °F 18.6 °F 26.4 °F 90% 29.87 in 1.5 mi NE 12.7 mph - N/A Snow Light Snow
2:15 PM 28.4 °F 18.0 °F 25.7 °F 90% 29.86 in 1.8 mi NE 12.7 mph 19.6 mph N/A Snow Light Snow
2:35 PM 28.6 °F 19.9 °F 24.8 °F 86% 29.87 in 3.0 mi NE 9.2 mph - N/A   Overcast
2:55 PM 29.3 °F 19.1 °F 22.8 °F 77% 29.88 in 5.0 mi NE 12.7 mph 18.4 mph N/A   Overcast
3:15 PM 28.8 °F 17.9 °F 22.6 °F 78% 29.89 in 7.0 mi ENE 13.8 mph 20.7 mph N/A   Overcast
3:55 PM 27.5 °F 17.4 °F 24.1 °F 87% 29.90 in 3.0 mi NE 11.5 mph - N/A Snow Light Snow
4:15 PM 27.3 °F 19.9 °F 24.3 °F 88% 29.91 in 2.5 mi NNE 6.9 mph - N/A Snow Light Snow
4:35 PM 27.0 °F 18.0 °F 24.6 °F 91% 29.91 in 2.0 mi NNE 9.2 mph - N/A Snow Light Snow
4:55 PM 26.6 °F 17.5 °F 24.8 °F 93% 29.92 in 2.0 mi North 9.2 mph - N/A Snow Light Snow
5:15 PM 26.6 °F 16.2 °F 25.0 °F 94% 29.93 in 1.5 mi North 11.5 mph - 0.01 in Snow Light Snow
5:35 PM 26.6 °F 16.2 °F 25.3 °F 95% 29.94 in 1.0 mi North 11.5 mph - 0.01 in Snow Light Snow
5:55 PM 26.6 °F 16.8 °F 25.2 °F 94% 29.95 in 1.0 mi North 10.4 mph 19.6 mph 0.01 in Snow Light Snow
6:15 PM 26.1 °F 13.1 °F 24.3 °F 93% 29.96 in 1.5 mi North 17.3 mph 23.0 mph N/A Snow Light Snow
6:35 PM 25.5 °F 13.3 °F 23.5 °F 92% 29.97 in 1.8 mi North 15.0 mph 23.0 mph N/A Snow Light Snow
6:55 PM 25.0 °F 11.3 °F 22.8 °F 91% 29.98 in 2.0 mi North 18.4 mph 26.5 mph N/A Snow Light Snow
7:35 PM 24.6 °F 11.7 °F 22.8 °F 93% 29.99 in 1.8 mi North 16.1 mph 21.9 mph N/A Snow Light Snow
7:55 PM 24.6 °F 13.8 °F 22.6 °F 92% 29.99 in 3.0 mi North 11.5 mph 19.6 mph 0.01 in Snow Light Snow
8:15 PM 24.6 °F 12.2 °F 22.5 °F 91% 29.99 in 3.0 mi North 15.0 mph 19.6 mph N/A Snow Light Snow
8:35 PM 24.4 °F 12.4 °F 22.3 °F 91% 30.00 in 4.0 mi North 13.8 mph 17.3 mph N/A Snow Light Snow
8:55 PM 24.6 °F 13.8 °F 22.1 °F 90% 30.00 in 7.0 mi North 11.5 mph 17.3 mph N/A   Mostly Cloudy
9:35 PM 25.2 °F 13.9 °F 21.7 °F 87% 30.02 in 10.0 mi North 12.7 mph 17.3 mph N/A   Scattered Clouds
9:55 PM 25.3 °F 14.1 °F 20.8 °F 83% 30.03 in 10.0 mi NNW 12.7 mph 17.3 mph N/A   Mostly Cloudy
10:15 PM 25.5 °F 14.9 °F 20.5 °F 81% 30.03 in 10.0 mi NNW 11.5 mph 19.6 mph N/A   Mostly Cloudy
10:35 PM 25.7 °F 15.1 °F 20.3 °F 80% 30.03 in 10.0 mi NNW 11.5 mph 17.3 mph N/A   Overcast
10:55 PM 25.7 °F 14.0 °F 20.3 °F 80% 30.04 in 10.0 mi NNW 13.8 mph 18.4 mph N/A   Overcast
11:15 PM 25.7 °F 15.1 °F 20.8 °F 82% 30.05 in 10.0 mi NNW 11.5 mph 17.3 mph N/A   Overcast
11:35 PM 25.9 °F 15.3 °F 20.8 °F 81% 30.05 in 10.0 mi NNW 11.5 mph - N/A   Overcast
11:55 PM 26.1 °F 15.6 °F 21.0 °F 81% 30.06 in 10.0 mi NNW 11.5 mph - N/A   Overcast